This is the latest recevied weather packets stored in our database for station/object W3TMB. If no packets are shown the sender has not sent any weather packets the latest 10 day(s).
| Time | Temp. | Humidity | Pressure | Rain* | Wind** | Luminosity | Snow |
|---|---|---|---|---|---|---|---|
| 1777555297 | 10° C | 82% | 1007 hPa | 0 mm | - | 225 W/m² | - |
| 1777554993 | 10° C | 83% | 1007 hPa | 0 mm | - | 258 W/m² | - |
| 1777554690 | 9.44° C | 83% | 1007 hPa | 0 mm | - | 140 W/m² | - |
| 1777554387 | 9.44° C | 85% | 1006.8 hPa | 0 mm | - | 126 W/m² | - |
| 1777554084 | 9.44° C | 85% | 1007 hPa | 0 mm | - | 154 W/m² | - |
| 1777553780 | 9.44° C | 88% | 1006.7 hPa | 0 mm | - | 148 W/m² | - |
| 1777553477 | 9.44° C | 89% | 1007 hPa | 0 mm | - | 82 W/m² | - |
| 1777553172 | 9.44° C | 90% | 1007 hPa | 0 mm | - | 89 W/m² | - |
| 1777552868 | 9.44° C | 91% | 1007 hPa | 0 mm | - | 85 W/m² | - |
| 1777552563 | 9.44° C | 91% | 1006.8 hPa | 0 mm | - | 44 W/m² | - |
| 1777552260 | 10° C | 91% | 1006.7 hPa | 0 mm | - | 27 W/m² | - |
| 1777551957 | 9.44° C | 91% | 1007 hPa | 0 mm | - | 32 W/m² | - |
| 1777551654 | 10° C | 92% | 1006.8 hPa | 0 mm | - | 29 W/m² | - |
| 1777551352 | 9.44° C | 92% | 1006.8 hPa | 0 mm | - | 29 W/m² | - |
| 1777551048 | 9.44° C | 95% | 1007.1 hPa | 0 mm | - | 38 W/m² | - |
| 1777550745 | 9.44° C | 96% | 1006.8 hPa | 0 mm | - | 43 W/m² | - |
| 1777550441 | 9.44° C | 96% | 1006.8 hPa | 0 mm | - | 58 W/m² | - |
| 1777550138 | 8.89° C | 98% | 1006.7 hPa | 0 mm | - | 63 W/m² | - |
| 1777549834 | 8.89° C | 99% | 1006.5 hPa | 0 mm | - | 65 W/m² | - |
| 1777549530 | 8.89° C | 99% | 1006.7 hPa | 0 mm | - | 60 W/m² | - |
| 1777549226 | 8.89° C | 99% | 1006.8 hPa | 0 mm | - | 64 W/m² | - |
| 1777548923 | 8.89° C | 99% | 1006.7 hPa | 0 mm | - | 78 W/m² | - |
| 1777548620 | 8.89° C | 99% | 1006.5 hPa | 0 mm | - | 75 W/m² | - |
| 1777548317 | 9.44° C | 99% | 1006.7 hPa | 0 mm | - | 84 W/m² | - |
| 1777548015 | 9.44° C | 99% | 1006.5 hPa | 0 mm | - | 90 W/m² | - |
* Rain latest hour (hover to see other rain measurements)
** Current wind speed in m/s (hover to see current wind gust speed)